[[{"header":{"parameterUnit":"m.s-1","parameterCategory":1,"la1":30.2991,"la2":30.254,"lo1":-89.0895,"lo2":-89.0444,"dy":0.0017,"dx":0.0017,"nx":28,"ny":28,"refTime":"2024-05-13T09:00:00:Z","depth":0,"parameterNumber":2,"parameterNumberName":"U-component_of_WINDS"},"data":[0,0,0,0,0,0,0,0,0,0,0,0,0,0,0,0,0,0,0,0,0,0,0,0,0,0,0,0,0,0,0,0,0,0,0,0,0,0,0,0,0,0,0,0,0,0,0,0,0,0,0,0,0,0,0,0,0,0,2.9214,2.9215,0,2.9316,2.9317,2.9318,2.9293,2.9291,2.9289,2.9287,2.9394,2.9398,2.9403,0,0,0,0,0,0,0,0,0,0,0,0,0,2.8997,2.9001,2.9213,2.9215,2.9216,2.9316,2.9317,2.9318,2.9293,2.9291,2.9288,2.9286,2.9392,2.9398,2.9404,0,0,0,0,0,0,0,0,0,0,0,0,0,2.9095,2.9003,2.9213,2.9215,2.9217,2.9315,2.9317,2.9319,2.9294,2.9291,2.9288,2.9285,2.939,2.9397,2.9404,2.9508,0,0,2.9426,2.9429,0,0,0,0,0,0,0,0,2.9089,2.9103,2.9214,2.9215,2.9217,2.9288,2.928,2.9382,2.9294,2.9265,2.9287,2.9283,2.9361,2.9371,2.9396,2.9513,2.9517,2.9427,2.9431,2.9434,2.9436,0,0,0,0,0,0,0,2.9082,2.9098,2.9254,2.9215,2.9217,2.9212,2.9222,2.9299,2.9329,2.9267,2.9265,2.9278,2.9362,2.939,2.9399,2.9519,2.9426,2.9433,2.9437,2.944,2.9724,2.9727,0,0,0,0,0,0,2.9074,2.9093,2.9251,2.9257,2.9144,2.9218,2.923,2.9269,2.9328,2.9334,2.928,2.9276,2.9379,2.9391,2.9402,2.9526,2.9434,2.944,2.9444,2.972,2.9724,2.9728,0,0,0,0,0,0,2.907,2.9088,2.9247,2.9174,2.9194,2.9225,2.9269,2.9272,2.93,2.9338,2.9343,2.9303,2.9377,2.9393,2.9481,2.9529,2.9444,2.945,2.9717,2.9722,2.9726,2.9774,0,0,0,0,0,0,2.9063,2.9087,2.9126,2.9175,2.9198,2.9324,2.9272,2.9276,2.9312,2.9308,2.9361,2.9367,2.9376,2.9471,2.9488,2.9537,2.9456,2.9712,2.9719,2.9725,2.9769,2.978,2.979,0,0,0,0,0,2.9056,2.9137,2.9129,2.9148,2.9248,2.9326,2.9339,2.9348,2.9316,2.9356,2.938,2.9365,2.9522,2.948,2.95,2.9552,2.9709,2.9717,2.9724,2.9764,2.9778,2.979,0,0,0,0,0,0,2.9094,2.9143,2.9135,2.9234,2.9276,2.9322,2.9372,2.9363,2.9416,2.9409,2.9419,2.9431,2.9521,2.9546,2.9498,2.9654,2.9611,2.9623,2.9634,2.9648,2.9659,2.965,2.9461,0,0,0,0,0,2.9113,2.9172,2.9213,2.9297,2.9318,2.9342,2.9376,2.9379,2.9423,2.9441,2.9472,2.9516,2.9574,2.9613,2.967,2.9773,2.9783,2.9818,2.9829,2.9838,2.9847,2.9902,2.9917,2.9753,2.9752,2.9752,0,0,2.9155,2.919,2.9226,2.9305,2.9338,2.9399,2.9357,2.9424,2.9469,2.9452,2.9536,2.956,2.961,2.9706,2.975,2.9729,2.9895,2.9847,2.9854,2.9859,2.9911,2.9926,2.994,2.9758,2.9757,2.9756,0,0,2.9261,2.9294,2.9366,2.94,2.945,2.9465,2.9482,2.953,2.9544,2.9629,2.9617,2.9672,2.9774,2.9809,2.984,2.9959,2.9946,2.9977,3.0033,3.0087,3.0099,3.0111,3.0151,3.0166,2.9987,2.9987,2.9987,0,2.9307,2.9397,2.9405,2.9472,2.9506,2.9493,2.9566,2.9598,2.9665,2.9689,2.9665,2.9791,2.9824,2.9926,2.9955,2.9982,3.0001,2.997,3.0097,3.0109,3.0119,3.0158,3.0173,2.999,2.999,2.9989,2.9989,0,2.945,2.9513,2.9566,2.9628,2.9669,2.9739,2.9756,2.9797,2.9796,2.9814,2.99,2.9939,3.0002,3.0027,3.0028,3.013,3.0115,3.0094,3.0051,3.0138,3.0174,3.019,2.9995,2.9994,2.9993,2.9992,0,0,2.9583,2.9648,2.9667,2.9694,2.9748,2.9797,2.9866,2.9927,2.996,3.0007,3.0064,3.015,3.013,3.0166,3.017,3.0217,3.0306,3.019,3.0192,3.0209,3.0419,3.0433,3.045,3.0299,3.0302,3.0304,3.0414,0,2.9692,2.9812,2.982,2.9929,2.9987,2.9975,3.0035,3.0074,3.0092,3.0144,3.0165,3.0225,3.0195,3.0216,3.0262,3.0286,3.0348,3.0278,3.0352,3.0354,3.0337,3.0469,3.0485,3.0586,3.0429,3.0431,3.0433,0,2.9836,2.9884,2.9999,3.0042,3.0067,3.0121,3.0176,3.0226,3.027,3.028,3.0319,3.0317,3.0388,3.0343,3.044,3.0392,3.0423,3.0439,3.0443,3.0449,3.0397,3.0477,3.0619,3.0634,3.0456,3.0454,3.0452,0,2.9918,3.0013,3.0093,3.0117,3.0171,3.0209,3.0233,3.0274,3.031,3.0359,3.0382,3.0439,3.047,3.0514,3.0527,3.0494,3.0623,3.058,3.0633,3.0632,3.0659,3.0657,3.0806,3.0683,3.0682,3.0682,3.0682,0,3.0038,3.0108,3.013,3.0179,3.0257,3.0266,3.0342,3.0365,3.0401,3.0454,3.0449,3.0499,3.0514,3.0567,3.0578,3.0655,3.067,3.0679,3.0681,3.0679,3.0677,3.0698,3.069,3.0686,3.0685,3.0684,3.0684,0,3.0143,3.0161,3.0247,3.029,3.0303,3.0358,3.0395,3.0442,3.0459,3.0526,3.0543,3.057,3.0632,3.0649,3.0724,3.0732,3.0822,3.0818,3.0806,3.0806,3.0856,3.085,3.1023,3.1045,3.0908,3.091,3.0911,0,3.0218,3.0271,3.032,3.0354,3.0379,3.0436,3.0471,3.0482,3.052,3.0573,3.0614,3.0674,3.0723,3.0822,3.0849,3.0905,3.0902,3.0958,3.091,3.0906,3.09,3.0896,3.09,3.0967,3.0968,3.0969,3.097,0,3.0348,3.0353,3.0404,3.0458,3.0501,3.0544,3.0586,3.0615,3.0632,3.0674,3.0736,3.0774,3.0849,3.0909,3.0966,3.0992,3.0984,3.0986,3.1,3.0997,3.0987,3.0991,3.0828,3.0981,3.098,3.0979,3.0979,3.0978,3.0438,3.0484,3.0525,3.0581,3.0614,3.0653,3.0698,3.072,3.0772,3.0833,3.0837,3.0904,3.0946,3.1022,3.105,3.1103,3.1086,3.1108,3.1114,3.1118,3.1121,3.098,3.1114,3.1113,3.1113,3.1113,3.1113,0,3.0566,3.0591,3.0643,3.0701,3.0745,3.0734,3.0779,3.0817,3.0875,3.0915,3.0963,3.1033,3.1091,3.1122,3.1179,3.1215,3.1213,3.123,3.1226,3.1232,3.1134,3.1114,3.1231,3.1231,3.1231,3.123,3.123,3.123,3.0637,3.0713,3.0724,3.0815,3.084,3.0905,3.0931,3.0967,3.0998,3.1077,3.1124,3.1144,3.118,3.124,3.1292,3.1299,3.132,3.1338,3.1344,3.1251,3.1239,3.1228,3.1209,3.1343,3.1343,3.1437,3.1438,3.1439]},{"header":{"parameterUnit":"m.s-1","parameterCategory":1,"la1":30.2991,"la2":30.254,"lo1":-89.0895,"lo2":-89.0444,"dy":0.0017,"dx":0.0017,"nx":28,"ny":28,"refTime":"2024-05-13T09:00:00:Z","depth":0,"parameterNumber":3,"parameterNumberName":"V-component_of_WINDS"},"data":[0,0,0,0,0,0,0,0,0,0,0,0,0,0,0,0,0,0,0,0,0,0,0,0,0,0,0,0,0,0,0,0,0,0,0,0,0,0,0,0,0,0,0,0,0,0,0,0,0,0,0,0,0,0,0,0,0,0,1.3972,1.3973,0,1.404,1.4041,1.4042,1.4047,1.4046,1.4045,1.4044,1.4115,1.4117,1.412,0,0,0,0,0,0,0,0,0,0,0,0,0,1.3846,1.3849,1.3972,1.3973,1.3974,1.404,1.4041,1.4042,1.4047,1.4046,1.4045,1.4044,1.4114,1.4117,1.412,0,0,0,0,0,0,0,0,0,0,0,0,0,1.3906,1.3849,1.3972,1.3984,1.3986,1.404,1.4041,1.4042,1.4047,1.4046,1.4045,1.4044,1.4113,1.4117,1.4121,1.4167,0,0,1.4133,1.4134,0,0,0,0,0,0,0,0,1.3903,1.3911,1.3981,1.3983,1.3985,1.4034,1.4023,1.4084,1.4047,1.4024,1.4044,1.4043,1.4089,1.4095,1.411,1.4171,1.4174,1.4133,1.4135,1.4137,1.4138,0,0,0,0,0,0,0,1.3899,1.3908,1.3999,1.3982,1.3985,1.3986,1.3994,1.4034,1.4062,1.4026,1.4026,1.4034,1.409,1.4106,1.4112,1.4175,1.4133,1.4136,1.4139,1.414,1.4277,1.4278,0,0,0,0,0,0,1.3892,1.3905,1.3997,1.4001,1.3941,1.3989,1.3998,1.4019,1.4061,1.4067,1.4035,1.4034,1.41,1.4107,1.4114,1.4171,1.4137,1.4141,1.4143,1.4275,1.4277,1.4278,0,0,0,0,0,0,1.389,1.39,1.3994,1.3953,1.3965,1.3993,1.4017,1.4021,1.4038,1.4069,1.4074,1.4047,1.41,1.4109,1.4154,1.4174,1.4142,1.4146,1.4274,1.4276,1.4278,1.4286,0,0,0,0,0,0,1.3886,1.3899,1.3917,1.3953,1.3967,1.4033,1.4019,1.4023,1.4044,1.4044,1.4081,1.4086,1.4099,1.4148,1.4158,1.4178,1.4149,1.4272,1.4275,1.4277,1.4284,1.4288,1.4291,0,0,0,0,0,1.3881,1.3917,1.3918,1.3929,1.399,1.4034,1.4042,1.4056,1.4046,1.4064,1.4084,1.4085,1.417,1.4153,1.4164,1.4186,1.4271,1.4274,1.4277,1.4282,1.4287,1.4291,0,0,0,0,0,0,1.3883,1.3922,1.3924,1.3972,1.4,1.4035,1.4058,1.4061,1.4092,1.409,1.4107,1.4115,1.416,1.4177,1.4158,1.4233,1.4219,1.4225,1.422,1.4224,1.4228,1.4223,1.4152,0,0,0,0,0,1.389,1.3921,1.3954,1.3994,1.4007,1.403,1.405,1.4058,1.4088,1.4099,1.4122,1.4151,1.4184,1.4205,1.4237,1.4286,1.4294,1.4307,1.4311,1.4313,1.4318,1.4344,1.435,1.4288,1.4288,1.4288,0,0,1.3902,1.3928,1.3947,1.3995,1.4017,1.4049,1.404,1.4075,1.4099,1.4105,1.4148,1.4166,1.4199,1.4246,1.4268,1.4262,1.4337,1.4317,1.4319,1.4322,1.4348,1.4354,1.4359,1.429,1.429,1.4289,0,0,1.3943,1.3965,1.4,1.4022,1.4056,1.4071,1.4079,1.4114,1.4126,1.417,1.4174,1.4204,1.426,1.4283,1.4302,1.4351,1.4352,1.4361,1.4379,1.4405,1.441,1.4414,1.4431,1.4437,1.4365,1.4365,1.4365,0,1.3954,1.4004,1.4018,1.4053,1.4074,1.4079,1.4115,1.4136,1.4179,1.4193,1.4185,1.4256,1.4279,1.4331,1.4343,1.4358,1.4368,1.4356,1.4408,1.4413,1.4417,1.4433,1.4439,1.4366,1.4365,1.4365,1.4365,0,1.4016,1.405,1.4075,1.4115,1.4138,1.4174,1.4193,1.4215,1.4222,1.4238,1.4282,1.431,1.4347,1.436,1.4367,1.4413,1.4408,1.4405,1.4391,1.4423,1.4439,1.4445,1.4367,1.4366,1.4366,1.4366,0,0,1.406,1.4107,1.4116,1.4134,1.4171,1.4197,1.4233,1.4269,1.4287,1.4316,1.4346,1.4394,1.439,1.4412,1.4421,1.4444,1.448,1.4437,1.4438,1.4444,1.4531,1.4534,1.454,1.4481,1.4482,1.4483,1.4528,0,1.4103,1.4166,1.418,1.4233,1.4265,1.4271,1.4301,1.4327,1.4343,1.4372,1.4389,1.4422,1.4415,1.4428,1.4451,1.447,1.4497,1.4467,1.4509,1.451,1.45,1.4549,1.4551,1.4593,1.4534,1.4535,1.4536,0,1.4163,1.4192,1.4249,1.4282,1.4295,1.4323,1.4356,1.4384,1.4414,1.4424,1.4447,1.4455,1.4491,1.4476,1.4527,1.4506,1.4524,1.4536,1.4538,1.4542,1.4525,1.4553,1.4606,1.4612,1.4546,1.4545,1.4544,0,1.4188,1.4242,1.4283,1.4298,1.4337,1.4356,1.4373,1.4402,1.4422,1.4452,1.4466,1.45,1.4518,1.4544,1.456,1.4548,1.461,1.4596,1.4618,1.4618,1.4631,1.463,1.4686,1.4643,1.4643,1.4643,1.4643,0,1.4235,1.4269,1.4294,1.432,1.4358,1.4374,1.4411,1.4429,1.4454,1.4482,1.449,1.4516,1.4536,1.4565,1.4578,1.4618,1.4626,1.4635,1.4638,1.4634,1.4633,1.4646,1.4643,1.4645,1.4644,1.4644,1.4644,0,1.4269,1.4287,1.4332,1.4365,1.4374,1.4401,1.443,1.4454,1.447,1.4506,1.4515,1.454,1.4574,1.4593,1.4637,1.4645,1.469,1.4691,1.4679,1.468,1.4701,1.4699,1.4768,1.4778,1.4728,1.4729,1.4729,0,1.4297,1.4324,1.436,1.4379,1.4396,1.4428,1.4449,1.4465,1.4487,1.4522,1.4542,1.4577,1.4606,1.4661,1.4683,1.4717,1.4719,1.4741,1.4724,1.4719,1.4718,1.4716,1.4719,1.4743,1.4744,1.4744,1.4745,0,1.4346,1.4353,1.4383,1.4416,1.4441,1.4468,1.4494,1.451,1.453,1.4554,1.459,1.4612,1.4656,1.4691,1.4726,1.4744,1.4748,1.475,1.4756,1.4752,1.4744,1.4748,1.4687,1.4748,1.4748,1.4747,1.4747,1.4747,1.4378,1.4401,1.443,1.4462,1.4484,1.4508,1.4533,1.4551,1.4581,1.4618,1.4626,1.4663,1.4692,1.4739,1.4758,1.4787,1.4783,1.4793,1.4795,1.4798,1.4798,1.474,1.4794,1.4794,1.4794,1.4794,1.4794,0,1.4425,1.4444,1.4474,1.4511,1.4536,1.4538,1.4567,1.4588,1.4621,1.4647,1.4675,1.4716,1.4749,1.4774,1.4808,1.4827,1.4829,1.4835,1.4833,1.4837,1.48,1.4791,1.4832,1.4832,1.4832,1.4832,1.4832,1.4832,1.4453,1.4493,1.4504,1.4554,1.4573,1.4609,1.4625,1.4648,1.4669,1.4714,1.4741,1.4757,1.4782,1.4818,1.4849,1.4855,1.4867,1.4873,1.4879,1.4844,1.484,1.4836,1.4827,1.4875,1.4876,1.4914,1.4914,1.4914]}]]